DELTA 1 DEB, 42645

Orbit data source: Space-Track

DELTA 1 DEB, 42645 is space debris in SSO originally from a launch on Thu, 12 Jun 1975 UTC launched from the Air Force Western Test Range (AFWTR). Debris objects in space refer to the collection of defunct objects orbiting the Earth. Examples of debris include non-operational satellites, rocket bodies, and fragments generated from explosions, collisions, or faulty payload assembly.

Loading next visibility...
Identifier
42645, 1975-052ME
Orbit
SSO
Country
Flag of USUS
Related business
Manufacturer
Unknown
Mission
Spacecraft
Bus & Motor
Unknown
Mass
Unknown
Launch date (UTC)
1975-06-12 (51 years ago)
Launch vehicle
Unknown
Launch site
Air Force Western Test Range (AFWTR)
Object type
Payload
Rocket body
Debris
Shape & HBR
Unknown shape, 0.1 m
Radar Cross Section
Small (<0.1 m²)

Expand to show TLE details & history
Last TLE update: 1 week ago

TLE from 1 week ago
0 DELTA 1 DEB
1 42645U 75052ME  26163.49066519 -.00000043  00000-0 -17953-4 0  9996
2 42645  99.7314  60.9345 0269215 212.8850 330.7890 12.90065301462294
Epoch: 2026-06-12T11:46Z
TLE epoch observation values (Epoch: 2026-06-12T11:46:33.472Z)
Latitude
-2.21549°
Longitude
163.09749°
Altitude
1,125.179 km
Speed
7.374 km/s
True Right ascension
16h 02m 13s
True Declination
-2° 12' 10"
Sunlit
Object was in full shadow at epoch
Visualization orbit readout
Latitude
Unknown
Longitude
Unknown
Altitude
Unknown
Speed
Unknown
Apparent Right ascension
Unknown
Apparent Declination
Unknown
Sunlit
N/A
Visualization observer readout
Local Sidereal Time
21:39:57
Azimuth
Unknown
Elevation
Unknown
Doppler factor
Unknown
Orbital elements
Apogee altitude
1,505.316 km
Perigee altitude
1,091.975 km
Semi-major axis
7,676.782 km
Eccentricity
0.02692
Inclination
99.7314°
RAAN
60.9345°
Arg. of periapsis
212.885°
True anomaly
329.23814°
Mean anomaly
330.789°
Eccentric anomaly
330.01818°
Mean motion
3.22682 °/min
Orbital period
111.57 mins
BSTAR
-0.000017953
Loading maneuver chart data...
Computing Atmospheric mass density...
Loading historical data...
Loading historical data...
Loading historical data...
Loading historical data...
Loading historical data...
Loading historical data...
Loading historical data...

Documentation

Showing up to 5 results
|